Weather in Paishanba

Uzbekistan     40°00′39″N   66°13′47″E
temp.,
°C
wind,
m/s
gust,
m/s
humid.,
%
clouds,
%
prec.,
mm/h
press.,
hPa
HPBL,
m
13 may, thu
thu1323:00+21ne512355 0.0 1012324
02:00+19ne511463 0.0 1011287
05:00+16ene34574 0.0 101283
08:00+19ene23430 0.0 1012438
11:00+25ne23230 0.0 10111263
14:00+29ene56160 0.0 10102000
17:00+28ene99210 0.0 10101705
20:00+23ne47340 0.0 1011133
14 may, fri
fri1423:00+20ene612240 0.0 1012348
02:00+16e23340 0.0 101244
05:00+14ene22360 0.0 101248
08:00+19ene23270 0.0 1013384
11:00+25ene24190 0.0 10121185
14:00+30e44150 0.0 10102044
17:00+29ene99160 0.0 10102002
20:00+24ne713260 0.0 1011492
15 may, sat
sat1523:00+20ene510350 0.0 1011285
02:00+17e23480 0.0 101160
05:00+15ene46510 0.0 1011119
08:00+19ene45360 0.0 1011421
11:00+26ne23190 0.0 1009927
14:00+30n22140 0.0 10081871
17:00+30nnw43160 0.0 10071802
20:00+24ene611290 0.0 1008224
16 may, sun
sun1623:00+21ene34340 0.0 100972
02:00+18ne22370 0.0 100821
05:00+17ene22390 0.0 100920
08:00+23e24270 0.0 1010302
11:00+29ese11220 0.0 1009823
14:00+32wsw13150 0.0 10073156
17:00+33ssw22110 0.0 10063890
20:00+26ene611240 0.0 1007239
17 may, mon
mon1723:00+23ne34270 0.0 100850
02:00+21ese22270 0.0 100820
05:00+20e44310 0.0 100844
08:00+25e34290 0.0 1009299
11:00+31s23160 0.0 10081404
14:00+34ssw5510100 0.0 10073423
17:00+33sw23927 0.0 10063672
20:00+27sw331539 0.0 100629